This is the latest recevied weather packets stored in our database for station/object KC5DAQ-28. If no packets are shown the sender has not sent any weather packets the latest 10 day(s).
| Time | Temp. | Humidity | Pressure | Rain* | Wind** | Luminosity | Snow |
|---|---|---|---|---|---|---|---|
| 1777415063 | 31.11° C | 64% | 1004.7 hPa | 0 mm | - | 144 W/m² | - |
| 1777415003 | 31.11° C | 64% | 1004.8 hPa | 0 mm | - | 142 W/m² | - |
| 1777414943 | 31.11° C | 64% | 1004.7 hPa | 0 mm | - | 142 W/m² | - |
| 1777414883 | 31.11° C | 64% | 1004.7 hPa | 0 mm | - | 142 W/m² | - |
| 1777414823 | 31.11° C | 64% | 1004.8 hPa | 0 mm | - | 139 W/m² | - |
| 1777414762 | 31.67° C | 64% | 1004.8 hPa | 0 mm | - | 134 W/m² | - |
| 1777414703 | 31.67° C | 65% | 1004.9 hPa | 0 mm | - | 134 W/m² | - |
| 1777414642 | 31.67° C | 65% | 1005 hPa | 0 mm | - | 127 W/m² | - |
| 1777414583 | 31.67° C | 65% | 1005 hPa | 0 mm | - | 127 W/m² | - |
| 1777414521 | 31.67° C | 64% | 1004.9 hPa | 0 mm | - | 125 W/m² | - |
| 1777414461 | 31.67° C | 64% | 1004.9 hPa | 0 mm | - | 151 W/m² | - |
| 1777414404 | 31.67° C | 64% | 1004.9 hPa | 0 mm | - | 151 W/m² | - |
| 1777414341 | 31.67° C | 64% | 1004.9 hPa | 0 mm | - | 280 W/m² | - |
| 1777414282 | 31.67° C | 64% | 1004.8 hPa | 0 mm | - | 280 W/m² | - |
| 1777414222 | 31.67° C | 63% | 1005 hPa | 0 mm | - | 280 W/m² | - |
| 1777414162 | 31.67° C | 63% | 1004.8 hPa | 0 mm | - | 280 W/m² | - |
| 1777414099 | 31.67° C | 63% | 1004.9 hPa | 0 mm | - | 315 W/m² | - |
| 1777414034 | 31.67° C | 63% | 1004.9 hPa | 0 mm | - | 320 W/m² | - |
| 1777413973 | 31.67° C | 63% | 1004.9 hPa | 0 mm | - | 244 W/m² | - |
| 1777413911 | 31.67° C | 64% | 1005 hPa | 0 mm | - | 148 W/m² | - |
| 1777413846 | 31.67° C | 64% | 1005 hPa | 0 mm | - | 148 W/m² | - |
| 1777413784 | 31.67° C | 64% | 1005 hPa | 0 mm | - | 148 W/m² | - |
| 1777413722 | 31.67° C | 64% | 1005 hPa | 0 mm | - | 148 W/m² | - |
| 1777413665 | 31.67° C | 64% | 1005 hPa | 0 mm | - | 148 W/m² | - |
| 1777413602 | 32.22° C | 64% | 1004.9 hPa | 0 mm | - | 148 W/m² | - |
* Rain latest hour (hover to see other rain measurements)
** Current wind speed in m/s (hover to see current wind gust speed)